GEFSSE_con_probscp_204.txt.gz
Probability
30 29 27 26 23 17 10 4 1 1 1 1 1 1 2 3 4 6 8 7 5 3 1 0 0 0 0 0 0 0 2 4 5 5 4 3 2 2 3 2 1 2 4
34 32 31 29 26 20 11 5 2 1 1 1 0 1 2 3 4 5 6 5 4 3 2 1 0 0 0 0 0 1 3 4 5 4 4 3 2 2 2 1 2 4 6
35 34 34 33 30 23 15 8 4 3 2 1 1 2 3 3 4 5 4 4 3 3 2 1 0 0 0 0 1 3 4 4 4 5 4 3 3 4 3 2 3 7 9
35 35 36 35 31 26 20 13 8 6 4 3 3 4 4 4 5 5 5 4 4 3 3 1 1 1 0 1 2 4 4 4 4 5 4 2 6 9 8 4 4 7 8
38 36 38 37 33 29 26 20 14 9 7 6 5 5 5 6 6 6 6 6 5 4 3 3 2 2 1 1 3 3 3 3 3 3 2 2 9 15 12 6 4 5 5
39 39 40 40 37 34 31 26 21 16 12 10 8 8 9 9 8 8 8 8 7 5 4 4 4 3 3 3 3 3 3 2 1 1 0 3 12 18 15 7 4 5 6
41 42 43 43 41 38 34 30 27 24 19 14 11 10 11 11 10 9 9 9 9 8 6 5 5 5 4 3 3 3 3 2 1 0 1 5 15 22 18 9 6 7 8
43 45 45 43 41 38 34 31 29 26 22 17 14 13 12 12 11 11 11 11 12 12 10 8 6 5 4 3 3 3 3 3 1 0 1 8 20 27 24 15 11 10 9
45 46 44 38 36 33 32 31 29 26 22 19 17 15 14 14 13 13 14 16 17 15 13 10 7 6 5 4 3 3 4 4 3 2 3 12 26 33 28 19 13 12 10
47 47 42 35 31 30 29 29 29 27 23 22 20 18 16 15 14 13 14 17 19 18 15 11 8 8 7 5 5 4 5 5 3 3 6 16 30 35 29 20 14 12 11
47 46 40 33 30 27 26 28 28 26 24 24 23 20 17 15 13 11 11 16 19 18 16 13 11 10 8 7 6 6 5 4 3 3 8 19 29 32 27 21 16 13 12
50 47 40 35 31 25 25 30 30 26 24 23 21 20 19 16 13 11 13 17 19 20 18 15 12 10 8 7 8 9 7 3 2 3 9 20 27 27 23 20 17 16 14
54 51 44 38 33 28 30 34 31 26 23 21 20 21 21 16 13 14 18 20 21 20 18 16 14 12 10 9 9 10 9 5 3 4 8 17 23 23 23 21 19 17 15
55 52 47 43 41 41 41 38 32 27 25 23 23 24 23 19 16 19 24 26 23 19 17 17 16 14 12 11 9 9 9 8 7 5 6 13 18 21 23 24 21 18 16
57 54 50 49 51 52 49 42 33 31 30 28 27 29 28 26 26 28 30 30 25 20 18 18 17 16 14 12 9 8 8 9 8 6 6 10 15 18 20 22 21 18 16
61 59 56 54 55 54 48 41 35 34 35 33 34 36 36 36 38 38 36 32 27 23 22 22 21 18 15 13 11 8 7 7 6 6 6 8 10 12 15 18 19 18 17
63 61 56 51 50 49 44 39 36 36 37 38 39 42 43 44 44 42 39 34 28 25 25 26 25 21 16 12 10 7 6 5 5 6 7 6 6 6 9 13 18 19 17
59 57 51 43 43 46 44 41 38 37 37 39 42 45 47 47 44 41 39 35 30 26 25 25 25 22 16 10 7 5 4 5 5 5 7 6 5 5 6 9 13 16 15
55 52 44 38 39 43 44 42 40 37 37 38 41 44 46 45 42 40 38 36 32 28 26 25 25 24 18 11 6 4 4 5 5 5 7 7 7 7 7 7 9 10 11
53 47 39 34 35 39 42 42 40 37 35 34 37 41 43 43 41 40 37 35 33 32 30 27 26 23 19 12 6 4 4 5 6 7 7 9 10 11 10 8 8 8 8
49 44 39 35 34 37 39 40 38 37 34 32 33 37 40 42 42 40 36 34 34 33 30 27 24 20 17 12 6 2 3 4 6 7 7 8 10 10 9 9 9 8 6
46 43 41 39 37 36 37 37 37 37 36 33 33 35 37 39 40 38 37 34 32 30 28 25 23 20 15 9 4 2 1 2 4 5 6 7 7 7 7 7 9 9 8
46 44 43 42 39 36 35 35 36 36 37 35 35 35 36 36 36 35 34 32 30 28 27 26 25 23 16 7 3 2 1 2 3 4 5 6 6 6 5 6 8 10 9
45 43 43 43 40 37 36 35 35 36 37 35 35 35 35 35 33 32 30 29 28 27 27 26 26 25 19 10 5 4 3 3 4 5 5 6 6 6 7 7 9 9 8
41 42 42 42 40 38 37 35 34 36 36 35 34 34 33 32 30 28 27 27 28 28 27 26 26 25 19 12 8 5 4 4 4 5 5 5 5 5 6 8 9 8 6
39 41 41 40 40 39 37 34 34 35 35 35 34 33 32 31 29 25 24 25 27 27 27 26 25 23 18 12 8 6 4 2 3 4 4 4 3 4 5 8 10 8 5

GEFSSE_con_probscp_210.txt.gz
Probability
3 11 22 27 26 23 19 17 13 11 12 13 13 13 13 13 13 12 11 9 10 9 6 2 1 2 2 3 3 3 3 4 5 5 4 4 3 2 2 2 2 2 3
7 14 25 30 29 26 22 18 15 11 11 11 12 12 12 12 12 11 11 11 10 9 7 3 1 1 1 2 3 4 5 6 7 7 5 4 4 4 4 4 4 5 6
13 18 26 33 34 30 26 22 19 14 11 10 9 9 10 10 10 10 11 13 13 10 7 4 1 1 1 1 3 5 6 8 9 7 5 4 4 5 6 6 5 7 8
19 20 27 36 39 36 30 27 24 19 13 9 7 7 8 9 10 11 12 13 13 11 8 5 3 2 2 1 1 3 5 7 7 6 4 2 2 5 7 7 6 6 6
21 21 28 39 44 41 34 30 28 23 16 12 10 8 9 11 12 13 12 12 12 11 9 6 4 3 2 1 1 1 3 5 6 4 2 1 2 5 8 7 5 5 7
22 23 32 42 46 42 37 33 31 27 21 17 14 13 13 14 14 14 13 11 10 10 9 7 5 3 2 1 0 0 1 4 5 3 1 1 2 5 8 7 4 5 6
25 27 36 44 46 42 38 35 33 30 26 22 19 17 17 16 15 15 13 11 10 9 8 6 5 3 2 2 1 0 1 3 5 4 3 3 4 7 9 7 5 4 3
31 32 37 42 42 40 38 36 35 32 28 24 22 20 19 17 15 15 14 12 10 9 7 5 4 4 3 2 1 0 1 3 4 3 3 3 5 9 11 10 7 5 3
36 35 34 34 33 33 34 35 34 32 29 25 23 20 18 15 13 12 12 11 10 9 7 4 3 3 3 2 1 1 2 4 4 3 3 2 5 11 15 12 8 6 5
37 34 29 26 26 27 29 30 30 30 27 24 20 17 14 11 9 8 8 8 8 7 7 5 4 2 1 1 1 2 4 4 3 2 2 2 5 11 17 15 9 6 5
35 32 26 24 24 25 26 25 25 24 23 20 17 14 12 10 8 6 6 5 4 4 6 7 5 3 1 1 2 3 3 3 2 2 2 2 3 8 14 15 10 6 5
35 30 26 25 27 28 27 25 22 21 19 17 14 12 12 10 9 7 6 4 3 4 6 6 5 4 2 2 2 2 2 2 2 1 2 3 3 4 8 11 9 7 7
35 30 26 28 30 30 29 26 24 20 17 15 13 12 11 10 9 8 6 5 4 5 5 4 4 4 3 2 2 1 1 1 1 1 2 4 5 3 4 7 10 10 9
36 32 29 30 32 31 28 24 22 19 16 13 12 11 11 10 8 7 6 5 5 7 6 4 3 3 2 2 2 1 1 0 0 0 1 4 3 2 3 5 9 11 10
37 35 33 31 30 27 23 20 19 17 14 12 11 11 10 9 7 6 5 5 6 7 7 5 2 2 2 2 2 2 2 1 0 0 0 1 2 2 2 4 7 8 8
39 37 33 29 25 21 17 17 17 16 13 11 11 12 11 9 7 6 7 7 8 8 7 4 2 2 3 3 3 3 2 1 0 0 0 1 2 2 2 3 4 7 8
40 35 31 27 23 18 16 16 16 15 13 11 12 13 13 10 8 8 10 11 11 9 7 4 3 3 3 3 2 2 1 0 0 0 0 0 1 2 1 1 4 9 11
39 34 30 28 24 21 19 17 16 15 14 12 11 13 13 12 10 11 12 12 13 11 8 5 3 3 2 1 1 1 0 0 0 0 0 0 0 0 0 1 3 8 10
35 32 30 28 26 25 23 20 18 18 16 13 10 10 12 14 15 15 13 12 13 12 9 6 3 2 2 1 0 0 0 0 0 0 0 0 0 0 0 0 1 4 5
29 29 29 27 26 25 23 22 21 20 18 15 12 12 13 17 20 20 17 14 14 14 11 6 3 1 1 1 0 0 0 0 0 0 0 0 0 0 0 0 0 1 2
25 25 25 25 26 25 23 22 22 21 20 18 17 16 17 20 24 24 22 19 17 16 12 7 3 1 0 0 0 0 0 0 0 0 0 0 0 0 0 0 0 0 1
23 23 22 23 25 25 24 23 23 22 21 19 18 17 17 20 23 24 22 20 17 15 12 8 5 3 1 0 0 0 0 0 0 0 0 0 0 0 0 0 0 0 0
23 22 20 21 24 25 24 23 23 22 22 20 18 16 15 17 20 20 18 16 14 13 11 9 7 6 4 2 0 0 0 0 0 0 0 0 0 0 0 0 0 0 0
23 22 20 20 22 23 23 22 21 21 22 21 18 14 12 14 16 16 14 13 12 12 11 10 9 8 6 3 1 0 0 0 0 0 0 0 0 0 0 0 0 0 0
23 23 21 21 22 23 22 20 19 20 20 19 16 13 11 11 13 13 11 10 10 9 9 9 9 9 7 5 2 0 0 0 0 0 0 0 0 0 0 0 0 0 0
23 22 20 20 22 24 22 19 18 18 18 17 14 12 11 10 11 11 10 8 8 8 8 8 9 9 8 6 3 1 0 0 0 0 0 0 0 0 0 0 0 0 0

GEFSSE_con_probscp_216.txt.gz
Probability
5 12 20 24 26 27 26 26 27 28 28 25 22 22 22 22 19 16 15 15 14 11 8 6 4 2 2 3 3 2 1 1 0 0 1 2 2 2 2 3 3 2 1
9 17 24 25 26 27 28 28 30 33 33 30 25 22 22 22 20 18 16 15 13 11 8 6 3 2 2 3 4 3 3 3 2 1 1 1 1 1 1 3 3 3 2
18 23 28 27 26 26 29 32 35 38 39 37 31 25 24 24 23 22 19 16 14 12 9 6 4 3 3 5 5 4 4 4 4 4 3 1 0 0 1 2 3 3 4
24 27 31 32 29 28 30 34 37 39 41 41 36 31 28 26 25 23 19 16 15 13 10 7 4 3 4 4 4 4 3 3 3 4 4 2 0 0 1 2 2 3 4
24 27 33 37 36 34 34 35 37 38 39 39 39 34 28 24 22 21 19 16 13 12 10 6 4 3 3 2 2 2 2 2 3 4 5 3 1 0 1 2 2 2 3
22 27 35 41 41 39 38 35 35 36 36 36 36 34 28 23 21 21 20 17 13 9 6 5 5 4 2 1 0 1 1 1 2 3 3 2 1 1 2 3 4 3 2
24 28 37 43 43 42 39 34 32 32 32 32 32 32 29 24 23 23 20 16 12 9 5 5 6 5 3 1 1 1 1 2 2 1 1 1 2 3 4 5 5 4 4
25 28 36 42 42 41 37 33 30 30 30 29 29 30 28 24 22 20 17 14 11 10 7 5 6 7 6 3 2 2 2 3 3 1 0 1 3 4 6 7 7 6 6
24 26 32 36 38 37 34 32 31 29 29 29 29 28 24 20 17 15 13 12 11 9 8 5 5 9 8 5 3 3 2 2 2 1 1 2 4 6 8 10 11 10 8
23 26 29 33 34 33 32 32 30 29 28 28 27 25 21 16 12 10 10 10 9 8 7 5 5 7 8 6 4 3 2 2 1 1 0 1 4 6 8 10 12 12 11
24 26 30 31 31 32 32 31 29 28 27 25 23 21 17 13 9 8 8 8 6 6 7 6 4 4 5 4 3 3 2 1 0 0 0 1 2 4 6 7 10 11 10
23 26 29 30 28 29 30 29 27 26 24 21 20 17 14 10 7 6 6 6 5 5 6 6 5 3 4 4 3 3 1 0 0 0 1 1 1 3 5 6 8 8 7
21 23 27 28 26 26 26 26 25 25 22 19 18 15 11 7 4 5 6 6 6 6 6 5 5 4 5 5 4 2 1 0 1 0 1 1 1 2 4 6 7 6 4
21 21 25 27 26 24 23 23 24 25 23 19 17 14 11 7 4 4 5 6 7 7 6 6 6 6 6 5 3 1 0 0 1 0 0 0 1 1 3 4 5 3 2
24 24 25 26 25 22 20 19 22 23 22 19 16 15 12 9 6 4 5 6 7 8 7 6 6 6 6 4 2 1 0 1 1 0 0 0 0 1 1 2 2 2 1
27 27 27 26 24 22 19 17 17 18 18 16 15 13 12 10 7 5 5 6 7 7 6 5 5 5 5 4 3 2 1 1 1 0 0 0 0 0 0 1 2 3 2
27 27 27 25 23 22 21 19 17 15 15 14 13 12 10 10 8 6 6 7 6 6 6 5 4 4 4 4 4 3 1 0 0 0 0 0 0 0 0 0 1 2 2
22 23 24 23 22 21 20 18 17 15 13 13 13 12 11 11 9 8 7 7 6 6 6 6 4 3 4 4 5 3 1 0 0 0 0 0 0 0 0 0 0 1 1
14 17 19 18 18 18 16 14 13 12 11 10 10 10 11 12 11 9 8 7 6 6 7 6 5 3 3 4 4 3 1 0 1 1 0 0 0 0 0 0 1 2 2
7 11 14 14 13 13 13 11 9 8 7 7 7 7 9 11 11 10 8 6 5 6 8 8 7 5 4 4 4 3 1 0 1 1 0 0 0 0 0 0 1 2 3
4 8 12 13 12 12 14 13 10 8 8 8 7 7 7 9 10 9 8 7 7 8 10 10 9 7 7 6 4 2 1 0 1 1 0 0 0 0 0 0 0 1 2
6 8 11 13 14 15 16 17 15 13 11 9 9 9 8 9 10 10 9 10 11 12 12 10 8 7 7 6 4 1 0 0 0 0 0 0 0 0 0 0 0 1 1
7 9 10 12 13 14 16 18 18 16 13 11 11 11 11 11 11 10 10 12 13 15 13 10 6 5 5 4 2 1 0 0 0 0 0 0 0 0 0 0 0 1 2
9 9 10 10 10 11 14 17 17 15 13 13 12 12 11 10 9 9 8 9 11 13 13 9 5 4 3 3 2 1 0 0 0 0 0 0 0 0 0 0 0 1 1
10 10 10 10 10 10 11 13 14 13 11 11 12 12 10 8 6 6 7 7 8 10 10 9 6 4 3 3 3 1 0 0 0 0 0 1 1 1 1 0 0 0 0
10 10 10 10 10 9 8 10 12 11 9 9 11 11 8 6 5 6 6 6 7 8 9 8 7 6 4 3 2 2 1 0 0 0 0 1 2 2 2 1 0 0 0

GEFSSE_con_probscp_222.txt.gz
Probability
11 21 33 35 29 22 17 17 22 26 25 23 23 21 19 16 12 9 9 11 11 8 5 3 5 5 5 3 4 5 5 4 2 1 0 0 0 1 1 1 1 2 5
13 23 33 35 31 25 20 18 22 26 25 24 23 21 19 17 16 13 12 11 11 8 5 3 3 5 5 4 5 5 5 5 4 2 1 0 0 1 1 2 2 4 7
16 25 34 37 35 30 26 24 26 28 26 23 22 20 19 19 19 16 14 11 9 8 7 5 3 4 5 5 5 6 6 5 4 3 1 0 1 3 4 4 5 4 5
18 26 34 38 37 34 31 29 30 32 30 25 23 23 22 20 19 17 14 11 9 9 10 8 5 4 4 5 6 6 5 4 3 2 1 1 3 5 6 7 7 5 3
18 27 35 39 38 35 33 30 31 35 36 31 29 30 26 22 21 18 15 12 10 10 10 8 6 4 4 5 6 6 5 3 2 2 2 3 5 6 7 8 9 7 4
19 25 35 41 40 37 34 31 32 35 37 37 36 35 30 24 22 20 16 14 12 10 9 7 6 6 7 7 6 6 5 3 3 3 4 6 7 8 8 8 9 8 6
19 24 33 41 41 38 36 34 34 35 36 37 38 37 31 25 21 19 16 12 10 8 7 7 7 9 9 8 7 5 4 3 3 4 5 6 9 10 9 9 10 9 8
18 22 30 37 38 36 35 35 35 34 35 36 37 36 30 24 19 17 14 9 6 6 6 7 8 9 8 8 6 4 3 3 2 3 4 6 10 10 9 9 10 10 10
18 21 26 31 33 33 33 33 33 33 34 36 36 33 28 22 19 16 12 8 5 4 4 6 7 7 6 6 6 5 3 2 1 1 3 7 10 9 8 9 10 10 11
24 24 25 27 28 28 29 30 30 31 33 34 33 28 23 20 18 14 10 8 5 4 3 4 5 6 5 5 5 5 3 2 1 1 4 9 12 10 8 9 8 8 10
29 27 25 25 25 25 26 27 28 29 30 31 29 24 20 19 16 11 8 6 4 1 1 3 4 5 4 3 3 4 3 1 0 1 5 10 12 10 7 6 5 6 7
30 28 25 26 26 27 26 27 28 28 28 27 25 23 22 20 16 11 9 8 5 2 1 2 3 3 2 2 3 5 4 2 1 2 5 9 11 8 5 3 3 4 4
28 27 27 28 29 30 29 29 29 29 29 27 24 23 23 22 18 14 13 12 9 6 4 3 3 2 1 2 5 6 5 4 3 3 5 10 10 7 4 3 3 3 3
25 25 27 29 31 32 32 31 31 30 30 30 28 25 24 23 20 17 15 14 12 10 8 6 6 4 2 3 4 6 7 7 6 5 8 11 11 7 4 3 3 3 2
23 25 27 30 33 35 34 32 31 30 30 30 30 27 23 22 21 18 16 15 13 12 11 11 8 5 4 4 4 6 9 9 7 7 8 10 9 6 3 2 3 4 4
22 23 26 29 35 37 33 29 28 27 28 29 29 25 20 18 19 19 18 17 15 14 13 13 10 7 8 8 8 9 9 9 8 8 7 7 7 5 3 2 3 4 4
23 23 24 27 33 36 31 27 26 25 26 27 27 22 17 15 17 19 18 18 17 15 14 13 12 11 12 13 12 12 11 9 9 9 7 6 5 4 3 2 2 2 2
27 27 26 28 32 35 33 30 27 25 24 24 23 20 17 16 18 19 18 18 18 15 12 13 14 15 16 15 13 12 12 11 9 10 9 7 5 4 3 3 2 1 0
28 30 31 31 32 34 34 32 30 26 22 21 20 19 19 19 20 20 20 20 20 17 14 14 16 18 19 16 12 11 11 10 10 10 10 8 7 5 4 3 3 1 1
27 30 33 32 32 33 33 31 30 26 22 20 20 19 20 20 19 20 21 21 22 20 18 18 20 22 23 18 12 9 10 10 10 11 10 9 8 6 4 4 3 3 2
29 30 32 33 33 32 30 29 27 24 20 18 18 18 18 19 19 19 20 21 22 22 23 23 24 24 24 20 14 11 9 10 10 10 9 8 7 6 4 4 4 3 3
30 31 33 34 33 29 26 25 24 21 17 16 16 15 16 17 18 19 20 21 21 22 24 26 25 23 22 21 18 15 12 10 10 9 9 9 8 7 5 4 3 3 3
31 31 33 34 31 26 22 20 20 19 17 16 15 15 15 17 18 19 20 20 21 21 22 24 24 22 21 20 19 17 15 11 9 9 10 9 8 9 7 5 3 3 3
32 32 31 29 26 22 19 17 18 19 17 16 15 15 16 17 17 17 17 18 18 19 19 20 21 22 22 21 19 18 16 13 9 9 9 8 8 9 8 6 4 3 3
28 28 25 20 19 18 16 15 16 16 16 16 16 16 17 17 16 14 13 14 16 17 17 17 19 22 22 21 19 18 17 15 11 8 8 8 7 7 7 6 5 4 3
23 22 19 15 15 16 15 13 12 12 14 16 16 16 16 17 15 12 11 13 16 17 16 16 18 21 22 20 18 18 18 16 12 8 7 7 6 6 7 7 6 4 3

GEFSSE_con_probscp_228.txt.gz
Probability
33 36 40 40 36 30 24 19 14 9 6 4 3 4 5 6 6 7 8 9 9 8 7 6 4 4 5 5 4 5 4 3 3 2 2 2 3 3 3 3 2 3 5
35 36 39 39 35 30 25 20 15 11 8 6 5 5 5 5 6 6 7 8 8 6 5 4 4 4 5 4 4 4 3 2 2 2 1 1 2 4 4 3 2 3 6
34 35 37 38 35 31 28 24 19 15 11 9 8 6 5 5 5 5 4 5 5 4 3 3 3 3 4 3 3 3 3 2 1 1 0 0 3 7 9 6 4 3 4
33 33 35 37 35 33 31 29 24 18 14 12 10 7 6 5 5 4 3 3 3 4 3 3 3 3 4 3 3 3 3 2 1 1 1 0 6 16 19 12 6 5 4
36 35 36 37 35 34 33 30 26 21 18 15 12 9 8 7 7 5 5 5 6 6 5 4 4 4 5 4 4 4 3 2 1 0 1 1 12 27 27 15 9 8 8
39 39 39 38 37 36 34 31 28 25 21 20 17 15 15 15 13 10 7 7 8 9 8 7 6 7 7 6 6 5 3 1 0 0 0 2 17 33 29 15 11 11 10
38 41 42 42 41 38 35 31 30 28 26 25 24 24 25 25 21 16 12 10 9 10 10 9 9 8 7 7 7 6 3 1 0 0 0 5 20 32 26 15 12 10 9
38 42 43 42 42 39 35 32 31 30 29 28 28 30 31 30 26 22 17 13 11 10 10 10 8 7 6 6 7 5 3 2 1 0 1 7 21 29 24 16 12 9 8
36 38 37 36 38 37 35 34 33 32 30 29 29 30 30 28 26 25 21 18 15 10 8 7 5 4 4 4 5 5 4 3 1 0 1 9 21 28 24 18 12 9 8
30 31 31 31 33 33 33 35 36 34 31 30 30 30 28 26 24 23 21 19 16 10 6 4 3 2 2 2 3 5 5 4 1 0 2 10 22 26 23 18 15 11 7
29 29 29 30 30 29 30 35 37 34 31 31 31 31 29 26 23 21 20 18 15 11 7 5 5 4 2 1 3 6 6 3 1 0 3 13 22 25 22 19 17 14 9
33 29 28 30 29 28 30 35 36 33 32 31 32 31 29 25 22 22 22 20 17 14 11 10 10 7 3 2 4 7 6 4 2 2 6 16 23 22 20 20 18 15 13
32 29 29 32 32 33 36 38 35 33 33 33 33 33 30 26 23 23 25 25 21 16 14 14 13 8 4 2 3 4 5 5 4 4 9 17 20 18 17 18 17 15 14
31 30 32 36 40 43 44 41 37 35 34 34 36 37 34 31 27 27 29 27 22 17 16 16 14 10 6 3 2 2 3 4 5 6 9 15 18 17 15 16 17 16 15
33 34 39 45 51 53 50 45 41 38 35 35 39 41 39 37 35 32 31 28 22 19 18 18 16 14 9 4 2 2 3 3 4 6 9 14 17 16 14 15 17 17 16
34 38 44 51 57 57 53 48 43 39 38 38 41 44 43 42 40 35 31 26 23 21 21 20 18 16 12 8 6 6 5 4 5 7 9 13 15 14 13 15 16 16 16
37 41 46 51 57 57 54 49 42 39 38 40 43 45 45 42 38 33 28 25 22 21 22 22 20 19 16 14 13 12 9 7 8 9 11 12 12 11 13 16 17 17 16
42 46 48 51 57 58 57 51 42 38 38 40 43 44 41 37 33 30 27 24 22 21 21 22 22 21 20 19 18 16 12 10 10 11 12 12 11 11 14 17 18 17 15
46 50 52 54 58 59 59 54 45 39 37 39 42 41 35 29 27 26 25 24 24 23 21 20 22 23 22 20 18 15 14 12 10 10 12 12 11 12 15 17 18 16 14
45 48 51 53 57 59 59 55 48 41 36 35 37 35 29 23 22 22 24 25 26 24 20 21 24 24 23 20 15 12 13 13 11 10 10 11 10 11 13 15 15 13 12
41 43 45 47 53 58 57 55 50 43 37 32 30 28 25 20 19 20 23 25 26 24 21 21 24 25 24 21 16 11 11 12 12 11 11 10 9 8 10 12 12 11 9
37 39 41 43 48 53 54 53 49 43 35 28 24 24 23 20 19 19 20 22 23 23 22 22 23 24 24 22 19 13 10 9 9 10 10 10 8 7 6 8 10 10 9
36 38 39 39 41 46 49 49 44 37 30 24 22 25 25 21 19 17 16 18 19 20 21 22 23 23 24 23 20 16 12 9 8 8 9 9 8 7 5 4 7 10 10
36 36 36 35 36 40 45 45 38 30 25 23 24 26 25 22 18 16 16 16 17 18 19 20 21 23 24 23 21 18 16 13 9 8 7 7 6 6 5 4 6 9 10
33 32 31 32 34 36 39 39 34 26 22 23 24 24 24 21 18 16 16 17 18 18 19 21 21 22 23 22 21 19 17 15 11 7 6 5 3 3 5 6 8 9 10
29 29 29 31 34 35 35 34 31 25 22 22 22 22 21 18 16 15 16 18 19 19 21 22 23 22 21 21 20 19 18 16 12 7 5 4 2 1 4 7 9 10 10

GEFSSE_con_probscp_234.txt.gz
Probability
11 16 24 32 35 34 30 28 27 27 27 27 26 25 24 21 17 18 19 16 11 8 8 8 7 7 6 4 2 1 1 1 0 0 0 0 0 0 1 1 1 2 3
12 16 25 34 38 37 34 30 27 28 30 30 28 24 22 20 18 19 19 16 12 9 8 7 6 6 6 5 3 1 1 0 0 0 0 0 0 0 0 1 2 3 3
14 16 25 36 42 40 36 31 28 30 32 33 30 26 22 20 19 20 20 17 12 9 8 6 5 5 5 4 3 2 2 1 1 0 0 0 0 0 0 1 2 3 4
15 16 23 36 43 41 35 31 30 30 31 32 30 27 24 22 21 20 20 16 11 9 7 5 4 5 4 3 3 3 3 3 2 1 0 0 0 0 2 3 4 3 2
16 16 23 35 43 41 35 32 32 31 29 28 27 25 24 22 19 17 17 15 11 7 5 3 3 4 4 3 3 3 3 3 2 1 0 0 1 3 6 7 7 4 1
16 17 24 36 43 42 37 35 35 34 29 25 23 23 23 21 18 16 15 14 10 7 5 3 3 4 4 4 3 2 2 2 1 0 0 0 2 7 11 11 10 6 2
18 19 25 36 41 40 37 36 37 35 31 26 23 23 24 23 20 17 15 13 12 9 7 5 5 5 4 3 2 1 1 1 1 0 0 0 3 8 12 13 11 7 4
24 25 29 34 35 34 34 36 35 33 32 29 25 23 23 23 22 20 17 15 13 11 10 8 7 6 4 3 1 0 0 0 0 0 0 0 3 7 11 13 13 10 8
28 29 31 31 30 29 30 32 31 30 29 28 27 24 21 18 18 19 18 15 12 10 10 8 6 6 4 3 1 0 0 0 0 0 0 0 2 6 11 14 15 14 12
24 26 27 26 25 26 26 27 27 27 28 28 28 28 23 17 15 17 18 16 10 7 8 8 7 6 5 3 2 1 0 0 0 0 0 1 2 5 9 12 14 14 14
17 19 20 20 21 23 23 24 25 26 28 28 29 29 25 20 17 16 16 15 10 6 6 8 9 8 6 4 3 2 1 0 0 1 1 1 2 4 8 11 13 15 14
15 15 14 14 16 18 20 22 24 25 27 28 27 26 25 21 18 16 15 14 10 5 5 8 11 10 7 5 4 3 1 0 0 1 2 2 2 4 8 12 14 15 14
14 13 11 10 13 14 16 20 23 23 24 25 24 23 22 20 19 17 15 13 9 5 6 9 10 10 8 6 4 3 1 0 0 0 1 1 3 6 9 13 15 15 14
14 11 9 9 10 11 12 16 20 21 21 21 21 20 19 18 16 13 12 9 7 5 6 8 9 8 8 7 5 2 1 0 0 0 0 2 5 8 11 12 14 15 16
14 11 9 9 9 9 10 13 16 18 19 20 20 19 16 15 12 8 7 6 4 4 5 6 6 6 7 8 7 3 1 0 0 0 1 2 5 9 10 11 12 14 16
14 12 10 11 10 10 8 10 14 18 19 21 21 19 16 12 9 7 6 4 3 2 3 4 4 4 6 8 9 7 3 1 0 0 0 1 4 7 10 12 12 12 12
14 12 12 13 13 13 11 12 17 20 22 23 21 18 16 12 9 9 8 6 3 2 1 1 2 3 5 8 9 7 4 1 0 0 0 0 1 5 10 13 13 11 9
14 13 13 13 14 16 16 17 21 23 24 23 21 19 18 15 11 11 11 9 6 4 3 2 2 3 4 6 7 4 2 0 0 1 0 0 0 3 7 9 11 10 9
16 14 12 12 13 16 19 21 24 24 23 21 20 19 18 16 14 12 12 10 8 7 6 4 3 3 3 3 2 1 0 0 0 0 0 0 0 1 3 5 8 11 12
16 15 13 12 14 17 21 24 25 23 20 17 15 14 14 14 14 13 12 10 9 8 7 5 4 3 1 1 0 0 0 0 0 0 0 0 0 0 1 3 7 10 12
17 18 17 16 17 20 22 24 24 21 17 13 10 9 9 11 12 12 11 11 10 9 8 6 4 2 1 0 0 0 0 0 0 0 0 0 0 1 1 2 4 7 8
19 21 20 19 20 22 22 22 21 19 16 12 9 6 6 8 10 10 10 11 12 11 10 9 5 2 0 1 2 1 0 0 0 0 0 0 0 1 2 2 3 4 5
19 20 20 19 21 21 19 18 18 17 16 13 9 5 4 5 6 7 9 11 12 12 12 11 8 4 1 2 4 3 1 0 0 0 0 0 0 1 2 2 2 2 2
16 18 19 19 20 19 16 13 13 13 13 11 7 4 2 2 3 5 7 10 12 12 12 12 11 8 5 4 5 5 2 0 0 0 0 0 0 0 1 2 1 1 0
12 15 18 19 18 15 12 9 8 9 9 7 5 3 1 1 2 4 7 9 10 11 12 12 12 10 8 6 5 5 4 2 1 0 0 0 0 0 0 0 0 0 0
11 13 17 17 15 12 9 7 6 8 8 6 4 2 1 1 3 5 7 9 10 11 12 13 12 11 9 7 5 5 5 4 2 1 0 0 0 0 0 0 0 0 0

GEFSSE_con_probscp_240.txt.gz
Probability
6 11 19 21 26 37 43 42 41 40 38 34 30 27 24 21 16 12 10 11 11 12 11 7 3 2 3 3 3 2 1 0 0 0 0 0 0 0 0 0 0 1 0
10 15 21 23 27 35 41 41 41 40 36 31 28 26 23 21 17 13 10 10 11 11 10 8 5 3 4 4 3 2 1 0 0 0 0 0 0 0 0 0 0 1 1
15 18 21 23 26 32 35 37 37 37 32 28 27 24 21 19 18 15 11 9 11 12 11 9 7 6 7 7 5 3 1 0 1 1 1 0 0 0 0 0 0 1 2
22 21 20 22 25 28 30 30 32 32 30 27 26 24 21 19 18 17 14 10 11 14 14 12 11 10 10 11 8 5 2 0 1 1 1 0 0 1 1 1 1 1 1
27 25 23 23 23 24 26 26 28 30 30 27 26 26 23 19 17 18 16 13 12 15 17 16 15 14 13 13 11 8 4 2 1 1 0 0 0 2 3 3 2 1 0
30 28 27 26 24 24 26 27 29 31 31 28 27 27 26 22 19 19 17 15 14 16 19 19 17 16 15 13 12 10 7 4 2 1 0 0 1 3 7 7 5 2 1
33 31 31 30 29 29 30 31 32 33 33 32 31 31 30 27 23 21 18 17 16 16 18 19 18 17 15 12 10 10 9 7 3 1 0 0 3 7 11 11 8 5 3
36 33 31 31 32 32 32 33 35 36 34 35 36 35 33 29 24 22 20 19 17 15 16 17 17 16 15 12 8 7 9 7 5 2 1 2 5 8 9 9 7 6 6
34 32 31 29 28 28 30 31 33 35 34 34 35 34 31 26 22 20 20 18 15 13 13 14 15 15 14 12 8 4 5 6 5 3 2 3 4 4 4 5 6 6 7
28 29 29 28 25 23 25 27 30 32 31 29 28 26 24 22 19 17 17 16 14 12 12 13 13 13 13 12 7 3 3 5 5 3 1 2 3 3 3 4 6 7 8
19 21 24 24 22 20 20 22 26 29 28 25 23 20 18 17 16 15 14 13 12 12 12 12 11 11 11 10 6 3 4 6 6 4 2 2 3 4 3 4 5 7 8
12 14 15 16 16 16 15 17 21 24 25 24 22 20 19 17 15 15 15 13 12 12 11 11 11 10 10 9 6 4 6 8 8 7 5 3 3 3 3 3 4 6 8
8 8 8 8 10 11 12 13 15 19 21 22 22 21 20 19 16 15 15 14 13 13 13 13 12 9 7 7 5 4 6 7 7 7 6 4 3 2 2 3 5 5 6
5 4 4 5 6 7 9 10 11 13 16 19 20 19 18 18 15 13 13 11 11 11 12 11 9 6 5 4 4 4 4 4 4 4 4 3 3 2 2 4 5 5 5
3 2 2 3 4 4 6 7 8 9 11 16 18 18 18 16 13 10 9 7 6 6 7 6 5 4 3 3 3 3 3 3 2 2 2 3 3 2 2 3 4 4 5
4 3 2 2 4 4 5 5 6 6 8 11 15 17 19 18 14 10 7 5 3 3 3 3 3 3 3 3 2 2 3 3 2 1 1 2 3 2 2 4 5 5 5
7 5 3 3 4 5 5 4 4 5 6 9 13 16 19 20 17 11 7 5 4 4 3 3 3 3 2 2 2 1 3 4 2 0 0 1 2 2 3 7 9 7 6
10 7 5 4 5 6 5 4 3 4 6 9 14 17 18 19 16 12 7 6 6 5 4 4 4 4 3 3 2 1 2 2 1 0 0 0 0 1 3 7 10 10 8
8 7 6 6 6 5 4 3 3 3 5 10 15 18 19 18 15 11 9 7 7 6 5 5 6 5 3 3 3 2 1 1 0 0 0 0 0 1 1 4 8 9 8
5 6 6 7 7 6 4 4 4 4 5 8 12 16 18 17 14 11 10 8 8 8 7 7 7 6 4 3 3 2 2 2 1 0 1 1 1 2 1 1 4 6 7
5 6 7 7 7 6 5 5 5 5 6 6 9 12 15 14 12 10 8 8 8 8 8 8 9 8 5 2 1 1 1 2 2 1 2 3 2 3 2 1 2 4 6
5 7 8 8 8 6 5 5 6 6 6 7 8 10 10 10 8 6 4 5 7 8 8 9 10 9 6 2 0 1 1 2 1 1 2 2 2 3 3 2 2 3 4
4 6 7 8 8 6 5 5 7 7 7 7 9 9 8 6 5 4 2 3 6 8 8 8 10 10 7 4 2 2 2 1 0 0 1 1 1 2 2 2 2 2 3
2 3 5 6 6 6 6 6 7 7 7 7 9 8 5 3 4 4 2 1 4 7 8 8 9 10 8 6 5 4 3 1 0 0 0 0 0 1 1 1 1 2 3
1 3 3 3 4 6 6 6 7 7 6 6 6 4 2 1 2 2 1 1 3 6 6 7 8 9 9 8 8 6 4 3 2 0 0 0 0 0 0 0 0 2 3
2 2 2 2 3 4 5 6 6 6 6 5 4 3 1 0 0 1 0 0 2 5 6 6 7 8 9 9 9 8 6 5 3 1 0 0 0 0 0 0 1 2 3

GEFSSE_con_probscp_246.txt.gz
Probability
8 19 27 27 25 25 24 26 28 26 23 22 21 20 19 15 11 8 8 9 9 8 6 6 6 5 4 3 2 1 3 4 4 1 0 0 0 0 0 0 0 0 0
10 20 27 27 25 24 24 25 27 26 24 23 22 22 21 17 13 12 11 11 10 8 7 7 7 6 6 4 2 0 2 4 3 2 0 0 0 0 0 0 0 0 0
16 23 27 27 25 24 25 26 27 26 25 24 24 24 22 19 17 16 15 14 11 8 7 8 7 7 7 7 3 1 2 3 3 1 0 0 0 0 0 0 0 0 0
19 24 27 26 25 25 27 29 30 29 26 25 25 23 22 21 21 21 19 16 12 9 8 8 8 8 9 9 7 4 4 4 3 1 0 0 0 1 0 0 0 0 0
19 24 28 27 26 26 27 30 32 32 29 27 25 23 22 22 24 25 23 20 15 11 9 8 9 10 11 11 10 8 8 6 3 1 0 0 2 3 2 0 0 0 0
19 23 27 28 27 26 26 28 30 32 31 28 26 24 23 23 24 25 25 22 18 13 9 9 12 13 13 13 12 11 10 7 3 0 0 0 3 5 5 2 1 1 1
18 22 25 28 27 26 26 26 27 27 28 28 28 27 25 23 22 22 22 21 17 14 10 10 13 16 15 14 14 13 11 7 3 0 0 0 3 7 8 6 4 3 3
17 21 25 27 27 26 27 28 26 25 25 26 28 28 26 25 22 20 19 18 15 12 11 11 13 15 14 14 15 15 13 8 3 1 0 1 5 7 7 6 6 5 5
17 20 23 25 25 23 24 26 27 26 27 26 25 25 24 23 20 17 16 15 14 11 9 9 10 10 9 11 14 15 14 10 5 2 2 4 7 8 5 5 5 5 4
18 20 22 23 23 21 21 23 24 26 27 26 25 24 21 17 13 11 11 12 12 11 9 8 8 7 6 9 13 15 14 12 7 3 3 7 10 9 6 5 7 6 5
20 21 21 21 22 22 21 21 21 21 21 22 22 21 17 11 9 7 8 10 11 11 10 8 7 7 7 9 12 15 15 13 9 5 5 9 11 9 7 8 9 9 8
19 20 20 21 23 23 21 20 20 19 18 19 19 17 15 12 10 11 14 15 13 10 9 8 7 8 9 11 12 13 14 12 9 6 6 8 9 7 7 9 11 12 12
16 17 18 20 22 22 21 20 20 20 20 22 21 19 17 19 19 20 24 22 17 12 9 9 9 10 11 11 11 11 11 10 7 5 5 6 6 5 7 10 12 13 14
12 13 14 17 20 20 20 19 19 21 23 24 25 24 23 25 25 27 28 24 18 14 12 12 12 12 11 11 9 6 6 5 4 3 4 5 5 6 7 10 12 12 12
9 10 11 13 18 20 18 16 17 19 21 22 24 25 26 27 26 26 26 23 18 15 15 16 15 13 13 12 8 4 3 3 3 4 5 5 5 6 7 8 9 9 7
7 8 9 10 14 17 15 13 13 16 18 18 19 21 24 24 23 24 24 23 19 16 15 16 18 17 15 12 8 5 4 4 6 7 7 5 4 4 6 7 7 6 5
8 8 8 7 9 13 13 11 10 13 15 15 16 18 19 20 21 23 23 21 19 17 16 16 18 20 18 12 8 7 7 7 9 10 9 6 4 2 3 5 5 4 5
10 11 10 9 9 13 14 13 13 14 15 16 18 18 18 17 17 18 19 18 16 16 17 17 18 21 19 14 11 11 12 11 12 11 9 6 4 2 1 2 3 5 6
11 13 14 12 13 14 15 15 16 16 16 18 20 21 20 18 16 15 15 14 13 14 16 18 20 21 19 15 13 13 14 14 13 11 8 5 4 2 1 0 2 5 7
10 12 14 14 15 16 16 16 17 18 18 18 19 20 19 19 18 16 15 13 13 13 14 17 20 20 18 15 13 14 15 14 13 11 9 6 4 3 1 1 2 5 6
7 8 10 13 16 17 17 16 17 18 18 18 18 17 17 18 18 17 15 14 15 15 14 14 15 17 18 16 15 15 14 12 10 11 10 7 4 3 2 1 3 6 8
5 5 7 12 16 18 20 20 20 19 17 17 17 16 16 17 17 17 15 15 16 16 14 11 10 12 16 17 16 15 13 9 7 8 10 9 7 5 4 3 4 8 11
5 5 5 9 15 20 22 21 19 17 16 15 16 17 16 16 17 17 16 15 15 15 13 9 8 10 14 16 16 14 12 9 6 7 9 11 11 10 8 6 6 9 11
6 4 4 7 13 17 18 18 15 14 13 13 14 15 15 16 17 16 15 14 14 14 12 10 9 11 14 14 13 13 12 11 9 9 10 12 14 13 11 8 8 10 11
4 3 4 7 10 12 13 13 13 13 13 13 13 14 14 14 13 13 13 13 13 14 13 11 11 13 15 14 12 11 12 13 12 11 11 12 13 13 11 9 9 10 11
3 2 4 6 9 10 11 11 12 13 13 13 14 14 12 11 10 10 10 11 12 13 12 11 12 14 16 15 13 11 12 13 13 12 11 12 12 11 10 10 10 10 10

GEFSSE_con_probscp_252.txt.gz
Probability
27 29 31 31 29 25 21 17 15 12 9 7 5 3 3 5 7 9 10 13 16 15 12 8 6 4 3 3 5 7 6 2 2 4 3 1 0 0 0 0 1 2 2
30 31 33 33 30 26 22 18 15 13 12 10 7 5 4 5 7 8 10 12 14 14 11 8 6 5 5 5 6 7 5 3 4 4 3 2 1 0 0 0 2 3 2
33 31 33 35 33 28 25 21 17 15 14 13 10 7 5 4 5 7 8 10 11 12 10 7 5 4 5 6 6 6 4 4 4 3 2 1 1 1 2 1 2 3 4
33 30 33 37 35 31 29 25 21 16 15 14 12 10 8 6 5 5 5 7 9 10 9 6 4 3 5 6 7 6 4 4 4 2 1 0 1 3 5 4 2 4 6
31 32 36 40 39 35 33 29 23 18 15 13 12 12 11 9 7 5 4 5 7 8 8 6 4 4 5 6 7 6 5 4 3 1 0 1 2 5 8 7 5 5 7
29 32 37 42 42 39 35 30 24 18 16 13 11 11 11 11 9 7 5 4 4 5 6 6 5 5 5 6 7 7 5 3 2 1 0 1 4 8 10 9 7 7 7
28 30 34 41 42 38 33 27 21 17 16 14 12 10 10 9 8 8 6 5 5 5 6 6 6 6 6 6 6 6 4 3 2 0 0 2 7 13 14 12 10 7 6
28 27 30 35 36 32 28 24 20 18 18 17 15 12 9 8 7 8 8 7 7 7 6 6 6 6 6 6 5 4 3 3 2 0 0 4 11 18 18 15 12 8 5
28 26 24 25 25 24 23 23 23 25 25 23 18 14 10 8 8 8 8 9 8 7 5 4 4 5 6 6 5 4 3 3 2 1 2 6 14 20 20 16 13 9 7
28 24 19 18 19 19 22 25 27 29 30 28 22 17 13 10 9 9 10 11 10 8 4 2 2 3 5 5 5 5 5 4 3 2 4 8 15 20 19 16 13 11 9
27 23 19 19 20 20 23 27 29 30 31 29 25 21 17 14 11 10 12 15 14 10 6 3 1 2 3 4 4 4 6 6 5 4 6 11 17 19 18 16 15 13 11
26 23 22 23 24 23 25 29 31 29 28 28 26 24 22 18 14 11 15 19 18 14 10 7 5 4 3 3 3 4 6 6 5 5 8 15 19 19 17 17 17 15 13
24 23 22 23 26 26 27 30 31 28 27 27 27 26 23 21 18 17 22 24 22 19 15 12 9 7 5 4 4 6 7 7 7 7 10 19 23 21 18 18 18 16 15
24 23 22 24 27 29 30 32 31 28 27 28 29 26 23 23 22 24 28 28 26 23 20 16 13 10 9 8 6 7 7 9 11 11 13 21 25 22 18 17 16 16 15
25 25 25 27 31 31 32 33 31 29 28 28 28 26 24 24 24 27 30 29 27 24 21 19 17 15 15 12 10 9 9 11 14 14 15 22 26 23 18 13 13 14 13
25 27 29 30 32 33 32 30 28 29 29 27 26 25 23 23 25 27 29 29 27 25 23 20 20 19 17 16 14 14 15 15 16 17 18 21 25 24 18 13 12 14 14
25 28 29 29 32 34 31 26 24 25 27 25 24 24 24 24 25 26 27 28 28 26 24 22 20 18 17 17 17 18 20 21 21 20 20 19 19 20 18 15 14 15 16
25 27 28 29 30 31 29 25 22 22 23 23 22 24 26 26 26 27 26 25 25 25 22 20 19 17 15 16 17 18 21 24 24 22 19 16 15 15 14 11 11 14 15
25 26 27 29 28 26 26 27 25 22 24 25 25 26 27 27 28 30 28 25 23 20 17 16 17 17 14 14 14 16 19 22 22 19 16 14 14 14 10 7 8 10 11
23 25 27 29 28 26 27 28 26 24 26 28 28 28 27 27 29 30 28 25 20 16 14 14 16 16 14 12 12 13 15 17 18 17 15 14 14 12 9 8 9 9 9
18 21 24 25 27 28 29 28 27 25 25 25 24 25 26 25 26 26 24 21 18 14 14 15 15 14 12 12 12 11 10 12 14 14 14 13 12 11 10 10 12 11 9
13 15 18 21 24 28 29 28 27 24 22 20 20 21 23 23 22 21 20 17 15 14 14 16 16 13 11 11 11 10 7 7 9 10 11 11 10 10 10 10 12 13 13
10 11 15 20 25 27 27 27 25 22 19 18 19 21 23 22 20 19 17 14 13 14 14 16 16 14 10 10 10 9 7 6 6 7 9 9 8 7 8 9 12 14 16
11 13 18 24 27 28 27 25 22 20 18 17 18 20 22 23 21 18 15 13 13 13 13 14 14 12 10 8 8 8 7 6 5 5 7 7 6 5 6 9 11 13 14
14 16 21 25 27 27 25 23 20 19 18 19 19 19 20 20 19 16 13 13 14 12 11 12 13 13 9 6 5 5 5 6 6 5 5 4 4 3 5 9 10 10 10
15 18 21 24 26 26 24 22 20 19 19 21 21 19 18 18 17 14 11 12 14 13 12 13 14 14 10 6 3 3 4 5 6 5 3 2 1 2 4 8 9 8 7